Weather History for Bangor, ME

Change the Weather History Date:

Monday, October 7, 2013

  Actual Average Record
Temperature  
Mean Temperature 56 °F 50 °F  
Max Temperature 65 °F 61 °F 84 °F (1946)
Min Temperature 47 °F 40 °F 25 °F (1965)
Degree Days  
Heating Degree Days 9 15  
Month to date heating degree days 53 95  
Since 1 July heating degree days 287 367  
Cooling Degree Days 0 0  
Month to date cooling degree days 0 0  
Year to date cooling degree days 355 317  
Growing Degree Days 5 (Base 50)    
Moisture  
Dew Point 55 °F    
Average Humidity 92    
Maximum Humidity 97    
Minimum Humidity 86    
Precipitation  
Precipitation 0.43 in 0.14 in 1.46 in (1953)
Month to date precipitation 0.48 0.98  
Year to date precipitation 32.83 31.06  
Snow  
Snow 0.00 in 0.00 in 0.00 in (2002)
Month to date snowfall 0.0 0.0  
Since 1 July snowfall 0.0 0.0  
Since 1 September snowfall 0.0 0.0  
Snow Depth 0.00 in    
Sea Level Pressure  
Sea Level Pressure 30.03 in    
Wind  
Wind Speed 8 mph (SSE)    
Max Wind Speed 31 mph    
Max Gust Speed 40 mph    
Visibility 6 miles    
Events Rain    
T = Trace of Precipitation, MM = Missing Value Source: NWS Daily Summary

Daily Weather History Graph

Daily Weather History Graph

Search for Another Location

Airport:

Trip Planner

Search our weather history database for the weather conditions in past years. The results will help you decide how hot, cold, wet, or windy it might be!

Date:

Astronomy

Oct. 07, 2013 Rise Set
Actual Time 6:40 AM EDT 6:04 PM EDT
Civil Twilight 6:11 AM EDT 6:33 PM EDT
Nautical Twilight 5:37 AM EDT 7:07 PM EDT
Astronomical Twilight 5:03 AM EDT 7:41 PM EDT
Moon 9:34 AM EDT (10/7) 7:38 PM EDT (10/7)
Length of Visible Light 12h 21m
Length of Day
11h 23m
Waxing Crescent, 8% of the Moon is Illuminated
Oct 7
Waxing Crescent
Oct 11
First Quarter
Oct 18
Full
Oct 26
Last Quarter
Nov 3
New

Hourly Weather History & Observations

Time (EDT) Temp. Windchill Dew Point Humidity Pressure Visibility Wind Dir Wind Speed Gust Speed Precip Events Conditions
12:38 AM 46.4 °F 44.3 °F 44.6 °F 93% 30.23 in 6.0 mi SSE 4.6 mph - N/A   Overcast
12:53 AM 46.9 °F - 45.0 °F 93% 30.23 in 9.0 mi SE 4.6 mph - N/A   Overcast
1:00 AM 46.4 °F 44.3 °F 44.6 °F 93% 30.23 in 10.0 mi SSE 4.6 mph - N/A   Overcast
1:53 AM 48.0 °F - 45.0 °F 89% 30.22 in 10.0 mi South 3.5 mph - N/A   Overcast
2:18 AM 48.2 °F - 46.4 °F 93% 30.21 in 10.0 mi Calm Calm - N/A   Overcast
2:53 AM 48.0 °F - 46.0 °F 93% 30.19 in 10.0 mi SE 4.6 mph - N/A   Overcast
3:53 AM 48.0 °F - 46.0 °F 93% 30.19 in 10.0 mi ESE 3.5 mph - N/A   Overcast
4:40 AM 48.2 °F - 46.4 °F 93% 30.17 in 10.0 mi Calm Calm - N/A   Overcast
4:53 AM 48.9 °F - 46.0 °F 90% 30.17 in 10.0 mi SE 3.5 mph - N/A   Overcast
5:09 AM 48.2 °F - 46.4 °F 93% 30.16 in 10.0 mi Calm Calm - N/A   Overcast
5:53 AM 50.0 °F - 48.0 °F 93% 30.16 in 4.0 mi SE 4.6 mph - 0.00 in   Light Drizzle
6:53 AM 51.1 °F - 50.0 °F 96% 30.14 in 5.0 mi SSE 5.8 mph - 0.00 in   Light Drizzle
7:53 AM 53.1 °F - 50.0 °F 89% 30.12 in 10.0 mi SSE 11.5 mph - 0.00 in   Overcast
8:16 AM 53.6 °F - 51.8 °F 94% 30.12 in 10.0 mi SSE 10.4 mph - N/A   Overcast
8:53 AM 55.0 °F - 52.0 °F 89% 30.11 in 10.0 mi SE 9.2 mph - N/A   Overcast
9:53 AM 55.0 °F - 53.1 °F 93% 30.10 in 3.0 mi SSE 9.2 mph 16.1 mph 0.02 in   Overcast
10:01 AM 55.4 °F - 53.6 °F 94% 30.10 in 4.0 mi SSE 6.9 mph - N/A   Overcast
10:53 AM 57.0 °F - 55.0 °F 93% 30.07 in 6.0 mi SE 9.2 mph - 0.03 in Rain Light Rain
11:53 AM 59.0 °F - 57.0 °F 93% 30.05 in 9.0 mi SE 4.6 mph - 0.00 in   Overcast
12:51 PM 60.8 °F - 57.2 °F 88% 30.01 in 6.0 mi SSE 8.1 mph - 0.02 in   Overcast
12:53 PM 60.1 °F - 57.9 °F 93% 30.01 in 5.0 mi SE 6.9 mph - 0.02 in   Overcast
1:13 PM 60.8 °F - 57.2 °F 88% 30.00 in 2.0 mi SSE 9.2 mph - N/A   Overcast
1:28 PM 60.8 °F - 57.2 °F 88% 29.99 in 1.5 mi SSE 10.4 mph - 0.00 in Rain Light Rain
1:53 PM 61.0 °F - 59.0 °F 93% 29.97 in 2.5 mi SSE 12.7 mph - 0.00 in   Overcast
2:47 PM 62.6 °F - 60.8 °F 94% 29.94 in 3.0 mi SSE 18.4 mph 24.2 mph 0.04 in Rain Light Rain
2:53 PM 63.0 °F - 61.0 °F 93% 29.94 in 3.0 mi SSE 16.1 mph 24.2 mph 0.07 in Rain Light Rain
3:53 PM 64.9 °F - 62.1 °F 90% 29.90 in 3.0 mi SSE 19.6 mph 25.3 mph 0.02 in Rain Light Rain
4:48 PM 64.4 °F - 62.6 °F 94% 29.88 in 1.8 mi South 18.4 mph 29.9 mph 0.02 in Rain Light Rain
4:53 PM 64.9 °F - 63.0 °F 93% 29.88 in 1.8 mi South 19.6 mph 27.6 mph 0.02 in Rain Light Rain
5:00 PM 64.4 °F - 62.6 °F 94% 29.88 in 3.0 mi South 16.1 mph 27.6 mph 0.00 in Rain Light Rain
5:33 PM 64.4 °F - 62.6 °F 94% 29.88 in 3.0 mi South 11.5 mph 19.6 mph 0.09 in   Overcast
5:53 PM 64.9 °F - 63.0 °F 93% 29.87 in 3.0 mi South 21.9 mph 31.1 mph 0.10 in   Overcast
6:53 PM 64.0 °F - 63.0 °F 96% 29.86 in 6.0 mi South 16.1 mph 28.8 mph N/A   Overcast
7:53 PM 64.0 °F - 62.1 °F 93% 29.84 in 10.0 mi South 16.1 mph 28.8 mph N/A   Overcast
8:53 PM 64.9 °F - 63.0 °F 93% 29.81 in 9.0 mi South 23.0 mph 31.1 mph N/A   Overcast
9:53 PM 64.9 °F - 63.0 °F 93% 29.80 in 10.0 mi South 23.0 mph 36.8 mph N/A   Overcast
10:53 PM 64.9 °F - 63.0 °F 93% 29.78 in 10.0 mi South 23.0 mph 34.5 mph 0.00 in   Overcast
11:53 PM 64.0 °F - 63.0 °F 96% 29.77 in 3.0 mi South 16.1 mph 23.0 mph 0.03 in Rain Light Rain